Freeport, IL

2:01 PM CST on November 19, 2017 (GMT -0600)
Albertus

Weather History for KFEP - March, 2014

Change the Weather History Date:

Tuesday, March 25, 2014

  Actual Average Record
Temperature  
Mean Temperature 23 °F -  
Max Temperature 28 °F 46 °F 77 °F (2007)
Min Temperature 18 °F 27 °F 0 °F (1974)
Degree Days  
Heating Degree Days 42    
Moisture  
Dew Point 11 °F    
Average Humidity 60    
Maximum Humidity 85    
Minimum Humidity 36    
Precipitation  
Precipitation 0.00 in - - ()
Sea Level Pressure  
Sea Level Pressure 30.15 in    
Wind  
Wind Speed 11 mph (WNW)    
Max Wind Speed 23 mph    
Max Gust Speed 31 mph    
Visibility 10 miles    
Events      
Averages and records for this station are not official NWS values.
T = Trace of Precipitation, MM = Missing Value Source: NWS Daily Summary

Daily Weather History Graph

Daily Weather History Graph

Search for Another Location

Airport or City:

Trip Planner

Search our weather history database for the weather conditions in past years. The results will help you decide how hot, cold, wet, or windy it might be!

Date:

Astronomy

Mar. 25, 2014 Rise Set
Actual Time 6:52 AM CDT 7:16 PM CDT
Civil Twilight 6:24 AM CDT 7:44 PM CDT
Nautical Twilight 5:51 AM CDT 8:17 PM CDT
Astronomical Twilight 5:18 AM CDT 8:51 PM CDT
Moon 3:20 AM CDT (3/25) 1:41 PM CDT (3/25)
Length of Visible Light 13h 19m
Length of Day
12h 23m
Waning Crescent, 32% of the Moon is Illuminated
Mar 25
Waning Crescent
Mar 30
New
Apr 7
First Quarter
Apr 15
Full
Apr 22
Last Quarter

Hourly Weather History & Observations

Time (CDT) Temp. Windchill Dew Point Humidity Pressure Visibility Wind Dir Wind Speed Gust Speed Precip Events Conditions
12:15 AM 28.8 °F 21.7 °F 24.3 °F 83% 30.07 in 10.0 mi West 6.9 mph - N/A   Overcast
12:35 AM 28.8 °F 22.6 °F 24.8 °F 85% 30.07 in 10.0 mi West 5.8 mph - N/A   Overcast
12:55 AM 28.8 °F 19.0 °F 24.8 °F 85% 30.07 in 10.0 mi West 11.5 mph - N/A   Overcast
1:15 AM 27.5 °F 18.0 °F 23.5 °F 85% 30.06 in 10.0 mi West 10.4 mph - N/A   Mostly Cloudy
1:40 AM 27.1 °F 17.5 °F 21.6 °F 80% 30.06 in 10.0 mi WNW 10.4 mph - N/A   Scattered Clouds
1:55 AM 26.6 °F 16.2 °F 20.7 °F 78% 30.06 in 10.0 mi WNW 11.5 mph 17.3 mph N/A   Clear
2:15 AM 27.0 °F 16.7 °F 20.3 °F 76% 30.06 in 10.0 mi WNW 11.5 mph - N/A   Mostly Cloudy
2:35 AM 26.6 °F 15.7 °F 19.4 °F 74% 30.06 in 10.0 mi WNW 12.7 mph - N/A   Overcast
2:55 AM 25.5 °F 16.9 °F 19.2 °F 77% 30.06 in 10.0 mi WNW 8.1 mph - N/A   Mostly Cloudy
3:15 AM 25.7 °F 15.7 °F 18.9 °F 75% 30.06 in 10.0 mi WNW 10.4 mph - N/A   Mostly Cloudy
3:35 AM 24.1 °F 13.1 °F 17.2 °F 75% 30.06 in 10.0 mi WNW 11.5 mph - N/A   Scattered Clouds
3:55 AM 23.7 °F 14.7 °F 16.5 °F 74% 30.06 in 10.0 mi WNW 8.1 mph - N/A   Clear
4:15 AM 22.1 °F 12.0 °F 14.0 °F 71% 30.06 in 10.0 mi WNW 9.2 mph - N/A   Clear
4:35 AM 21.7 °F 12.3 °F 13.1 °F 69% 30.06 in 10.0 mi WNW 8.1 mph - N/A   Clear
4:55 AM 21.2 °F 14.9 °F 12.6 °F 69% 30.06 in 10.0 mi West 4.6 mph - N/A   Clear
5:15 AM 19.6 °F 10.6 °F 12.6 °F 74% 30.06 in 10.0 mi West 6.9 mph - N/A   Clear
5:35 AM 19.9 °F 11.1 °F 12.6 °F 73% 30.06 in 10.0 mi West 6.9 mph - N/A   Clear
5:55 AM 19.8 °F 11.9 °F 12.0 °F 72% 30.07 in 10.0 mi West 5.8 mph - N/A   Clear
6:15 AM 19.0 °F 13.9 °F 11.8 °F 74% 30.07 in 10.0 mi WSW 3.5 mph - N/A   Scattered Clouds
6:35 AM 18.5 °F 11.7 °F 11.7 °F 75% 30.08 in 10.0 mi West 4.6 mph - N/A   Mostly Cloudy
6:55 AM 18.7 °F 11.9 °F 12.2 °F 76% 30.08 in 10.0 mi West 4.6 mph - N/A   Mostly Cloudy
7:15 AM 21.2 °F 10.1 °F 14.0 °F 74% 30.08 in 10.0 mi WNW 10.4 mph - N/A   Overcast
7:35 AM 21.2 °F 10.1 °F 14.4 °F 75% 30.09 in 10.0 mi WNW 10.4 mph - N/A   Mostly Cloudy
7:55 AM 21.9 °F 11.7 °F 14.9 °F 74% 30.10 in 10.0 mi NW 9.2 mph - N/A   Scattered Clouds
8:15 AM 23.7 °F 13.3 °F 16.5 °F 74% 30.10 in 10.0 mi WNW 10.4 mph - N/A   Clear
8:35 AM 23.7 °F 9.3 °F 14.9 °F 69% 30.10 in 10.0 mi NNW 19.6 mph 24.2 mph N/A   Clear
8:55 AM 23.7 °F 10.1 °F 14.7 °F 69% 30.11 in 10.0 mi NNW 17.3 mph 24.2 mph N/A   Scattered Clouds
9:15 AM 23.7 °F 10.5 °F 13.6 °F 65% 30.11 in 10.0 mi NW 16.1 mph 26.5 mph N/A   Scattered Clouds
9:35 AM 23.7 °F 8.2 °F 13.8 °F 66% 30.12 in 10.0 mi NNW 23.0 mph 26.5 mph N/A   Mostly Cloudy
9:55 AM 23.7 °F 10.5 °F 13.5 °F 65% 30.14 in 10.0 mi NW 16.1 mph 24.2 mph N/A   Overcast
10:15 AM 23.7 °F 8.5 °F 11.7 °F 60% 30.14 in 10.0 mi NNW 21.9 mph 26.5 mph N/A   Scattered Clouds
10:35 AM 23.7 °F 9.7 °F 9.3 °F 54% 30.15 in 10.0 mi NW 18.4 mph 25.3 mph N/A   Scattered Clouds
10:55 AM 23.7 °F 8.5 °F 5.5 °F 46% 30.16 in 10.0 mi NW 21.9 mph 31.1 mph N/A   Clear
11:15 AM 23.7 °F 9.7 °F 7.5 °F 50% 30.17 in 10.0 mi NW 18.4 mph 25.3 mph N/A   Clear
11:35 AM 23.7 °F 10.1 °F 9.0 °F 53% 30.17 in 10.0 mi NW 17.3 mph 27.6 mph N/A   Clear
11:55 AM 24.6 °F 12.2 °F 9.3 °F 52% 30.18 in 10.0 mi NW 15.0 mph 21.9 mph N/A   Clear
12:15 PM 24.4 °F 10.6 °F 9.7 °F 53% 30.17 in 10.0 mi NW 18.4 mph 21.9 mph N/A   Clear
12:35 PM 25.2 °F 12.4 °F 9.3 °F 51% 30.18 in 10.0 mi NW 16.1 mph 25.3 mph N/A   Scattered Clouds
1:15 PM 25.5 °F 10.6 °F 6.3 °F 44% 30.19 in 10.0 mi NW 23.0 mph 31.1 mph N/A   Clear
1:35 PM 26.4 °F 12.8 °F 6.8 °F 43% 30.19 in 10.0 mi NW 19.6 mph 25.3 mph N/A   Clear
1:55 PM 25.2 °F 13.3 °F 7.2 °F 46% 30.19 in 10.0 mi WNW 13.8 mph 25.3 mph N/A   Scattered Clouds
2:15 PM 26.4 °F 14.5 °F 5.4 °F 41% 30.18 in 10.0 mi NW 15.0 mph 28.8 mph N/A   Scattered Clouds
2:35 PM 27.1 °F 15.9 °F 6.1 °F 41% 30.18 in 10.0 mi NW 13.8 mph 29.9 mph N/A   Clear
2:55 PM 27.0 °F 13.9 °F 5.5 °F 40% 30.18 in 10.0 mi NW 18.4 mph 24.2 mph N/A   Scattered Clouds
3:15 PM 27.5 °F 18.0 °F 3.7 °F 36% 30.18 in 10.0 mi WNW 10.4 mph 25.3 mph N/A   Scattered Clouds
3:35 PM 26.6 °F 13.8 °F 6.6 °F 43% 30.18 in 10.0 mi WNW 17.3 mph 25.3 mph N/A   Scattered Clouds
3:55 PM 27.1 °F 13.4 °F 3.9 °F 37% 30.18 in 10.0 mi WNW 20.7 mph 26.5 mph N/A   Scattered Clouds
4:15 PM 27.1 °F 14.9 °F 4.5 °F 38% 30.18 in 10.0 mi NW 16.1 mph 23.0 mph N/A   Scattered Clouds
4:35 PM 28.8 °F 16.6 °F 6.4 °F 39% 30.18 in 10.0 mi WNW 17.3 mph 21.9 mph N/A   Scattered Clouds
4:55 PM 27.9 °F 14.7 °F 3.9 °F 36% 30.18 in 10.0 mi WNW 19.6 mph 26.5 mph N/A   Scattered Clouds
5:15 PM 27.3 °F 14.8 °F 3.7 °F 37% 30.18 in 10.0 mi WNW 17.3 mph 25.3 mph N/A   Scattered Clouds
5:35 PM 27.0 °F 14.3 °F 4.8 °F 39% 30.19 in 10.0 mi WNW 17.3 mph 23.0 mph N/A   Scattered Clouds
5:55 PM 26.2 °F 12.6 °F 5.2 °F 41% 30.20 in 10.0 mi WNW 19.6 mph 26.5 mph N/A   Scattered Clouds
6:15 PM 25.9 °F 12.9 °F 5.2 °F 41% 30.20 in 10.0 mi WNW 17.3 mph 27.6 mph N/A   Scattered Clouds
6:35 PM 25.3 °F 12.2 °F 4.6 °F 41% 30.20 in 10.0 mi WNW 17.3 mph 26.5 mph N/A   Scattered Clouds
6:55 PM 24.6 °F 12.7 °F 5.0 °F 43% 30.21 in 10.0 mi WNW 13.8 mph 23.0 mph N/A   Scattered Clouds
7:15 PM 23.7 °F 10.5 °F 6.4 °F 48% 30.21 in 10.0 mi WNW 16.1 mph 24.2 mph N/A   Scattered Clouds
7:35 PM 23.7 °F 12.1 °F 7.5 °F 50% 30.21 in 10.0 mi WNW 12.7 mph - N/A   Scattered Clouds
7:55 PM 23.4 °F 11.1 °F 7.7 °F 51% 30.21 in 10.0 mi WNW 13.8 mph - N/A   Clear
8:15 PM 22.3 °F 10.8 °F 7.2 °F 52% 30.22 in 10.0 mi NW 11.5 mph 19.6 mph N/A   Clear
8:35 PM 21.7 °F 11.5 °F 7.9 °F 55% 30.22 in 10.0 mi WNW 9.2 mph - N/A   Clear
8:55 PM 21.6 °F 9.3 °F 8.6 °F 57% 30.23 in 10.0 mi WNW 12.7 mph - N/A   Clear
9:15 PM 21.2 °F 9.5 °F 8.4 °F 58% 30.24 in 10.0 mi WNW 11.5 mph - N/A   Clear
9:35 PM 21.2 °F 10.9 °F 8.8 °F 59% 30.24 in 10.0 mi WNW 9.2 mph - N/A   Clear
9:55 PM 21.2 °F 10.9 °F 9.5 °F 61% 30.25 in 10.0 mi WNW 9.2 mph - N/A   Clear
10:15 PM 21.0 °F 11.4 °F 10.0 °F 63% 30.25 in 10.0 mi WNW 8.1 mph - N/A   Clear
10:35 PM 19.9 °F 12.1 °F 9.3 °F 63% 30.26 in 10.0 mi WNW 5.8 mph - N/A   Clear
10:55 PM 19.0 °F 10.0 °F 10.6 °F 70% 30.26 in 10.0 mi West 6.9 mph - N/A   Clear
11:15 PM 18.7 °F 9.5 °F 10.4 °F 70% 30.25 in 10.0 mi WNW 6.9 mph - N/A   Clear
11:35 PM 18.5 °F 13.3 °F 11.1 °F 73% 30.26 in 10.0 mi West 3.5 mph - N/A   Clear
11:55 PM 18.5 °F 11.7 °F 11.1 °F 73% 30.26 in 10.0 mi West 4.6 mph - N/A   Clear